Location: Beverley
(50.2667°N, 107.9667°W)
Time: 11:53:04
(UTC+00:00)

EO-88 - Visible Passes

Search period start: 25 June 2022 00:00
Search period end: 05 July 2022 00:00
Orbit: 458 x 464 km, 97.3° (Epoch: 25 June)

Date Brightness Start Highest point End Pass type
(mag) Time Alt. Az. Time Alt. Az. Time Alt. Az.
25 Jun ? 04:47:16 10° S 04:50:40 53° W 04:54:07 10° NNW visible
26 Jun ? 04:15:44 10° SSE 04:19:10 62° ENE 04:22:38 10° N visible
26 Jun ? 05:51:25 10° WSW 05:52:34 11° W 05:53:42 10° WNW visible
27 Jun ? 05:17:53 10° SSW 05:20:46 24° W 05:23:40 10° NW visible
28 Jun ? 04:45:40 10° S 04:49:05 56° W 04:52:32 10° NNW visible
29 Jun ? 04:14:06 10° SSE 04:17:31 59° ENE 04:20:59 10° N visible
29 Jun ? 05:49:34 10° WSW 05:50:54 12° W 05:52:13 10° WNW visible
30 Jun ? 05:16:07 10° SSW 05:19:02 25° W 05:21:59 10° NW visible
01 Jul ? 04:43:53 10° S 04:47:19 59° W 04:50:46 10° NNW visible
02 Jul ? 04:12:17 10° SSE 04:15:41 56° ENE 04:19:07 10° N visible
02 Jul ? 05:47:32 10° WSW 05:49:02 12° W 05:50:31 10° WNW visible
03 Jul ? 05:14:09 10° SSW 05:17:07 26° W 05:20:07 10° NW visible
04 Jul ? 04:41:54 10° S 04:45:20 62° W 04:48:48 10° NNW visible
